Uvalde, Texas, United States (78801)
Lat: 29.21N, Lon: 99.79W
Wx Zone: TXZ203
Local Info
Past Weather Observations for Today

NOTE: This archive is for the closest National Weather Service station to Uvalde. Information may differ from the station used for current weather conditions.

Click here for Long-term Archive

Time Weather Temperature Dewpoint Humidity Pressure Winds Precip Visibility
07:55
Overcast
Fog And Mist
66°F / 19°C 64°F / 18°C 94% 30.09 in
(1019 mb)
E 8.1 mph
(E 13 kph)
- 1 1/2SM
07:35
Overcast
Fog And Mist
66°F / 19°C 66°F / 19°C 100% 30.09 in
(1019 mb)
E 8.1 mph
(E 13 kph)
- 1 1/4SM
07:15
Overcast
Rain
66°F / 19°C 64°F / 18°C 94% 30.09 in
(1019 mb)
E 11.5 mph
(E 19 kph)
- 1SM
06:55
Overcast
Fog And Mist
66°F / 19°C 64°F / 18°C 94% 30.09 in
(1019 mb)
ENE 9.2 mph
(ENE 15 kph)
- 1SM
06:35
Overcast
Fog And Mist
66°F / 19°C 64°F / 18°C 94% 30.09 in
(1019 mb)
ENE 5.8 mph
(ENE 9 kph)
- 1SM
06:15
Overcast
Fog And Mist
66°F / 19°C 64°F / 18°C 94% 30.09 in
(1019 mb)
ENE 5.8 mph
(ENE 9 kph)
- 1SM
05:55
Overcast
Fog And Mist
66°F / 19°C 64°F / 18°C 94% 30.06 in
(1018 mb)
E 6.9 mph
(E 11 kph)
- 2SM
05:35
Overcast
Drizzle
66°F / 19°C 64°F / 18°C 94% 30.06 in
(1018 mb)
E 4.6 mph
(E 7 kph)
- 1 3/4SM
05:15
Overcast
Fog And Mist
66°F / 19°C 64°F / 18°C 94% 30.06 in
(1018 mb)
ENE 6.9 mph
(ENE 11 kph)
- 2SM
04:55
Overcast
Fog And Mist
66°F / 19°C 64°F / 18°C 94% 30.06 in
(1018 mb)
ENE 4.6 mph
(ENE 7 kph)
- 2 1/2SM
04:35
Overcast
Fog And Mist
66°F / 19°C 64°F / 18°C 94% 30.06 in
(1018 mb)
E 8.1 mph
(E 13 kph)
- 4SM
04:15
Overcast
Fog And Mist
66°F / 19°C 64°F / 18°C 94% 30.06 in
(1018 mb)
E 6.9 mph
(E 11 kph)
- 4SM
03:55
Overcast
Fog And Mist
66°F / 19°C 64°F / 18°C 94% 30.04 in
(1017 mb)
E 10.4 mph
(E 17 kph)
- 5SM
03:35
Overcast
66°F / 19°C 64°F / 18°C 94% 30.04 in
(1017 mb)
E 8.1 mph
(E 13 kph)
- 7SM
03:15
Overcast
Fog And Mist
66°F / 19°C 64°F / 18°C 94% 30.04 in
(1017 mb)
E 9.2 mph
(E 15 kph)
- 5SM
02:55
Overcast
Fog And Mist
66°F / 19°C 64°F / 18°C 94% 30.04 in
(1017 mb)
E 9.2 mph
(E 15 kph)
- 5SM
02:35
Overcast
Fog And Mist
66°F / 19°C 64°F / 18°C 94% 30.06 in
(1018 mb)
E 11.5 mph
(E 19 kph)
- 5SM
02:15
Overcast
Fog And Mist
66°F / 19°C 64°F / 18°C 94% 30.06 in
(1018 mb)
E 9.2 mph
(E 15 kph)
- 5SM
01:55
Overcast
Fog And Mist
66°F / 19°C 64°F / 18°C 94% 30.06 in
(1018 mb)
E 12.7 mph
(E 20 kph)
- 5SM
01:35
Overcast
66°F / 19°C 64°F / 18°C 94% 30.06 in
(1018 mb)
E 10.4 mph
(E 17 kph)
- 10SM
01:15
Overcast
68°F / 20°C 64°F / 18°C 88% 30.09 in
(1019 mb)
E 8.1 mph
(E 13 kph)
- 10SM
00:55
Overcast
68°F / 20°C 64°F / 18°C 88% 30.09 in
(1019 mb)
E 8.1 mph
(E 13 kph)
- 10SM
00:35
Overcast
68°F / 20°C 64°F / 18°C 88% 30.09 in
(1019 mb)
E 8.1 mph
(E 13 kph)
- 10SM
00:15
Overcast
68°F / 20°C 64°F / 18°C 88% 30.09 in
(1019 mb)
E 8.1 mph
(E 13 kph)
- 10SM
Time Weather Temperature Dewpoint Humidity Pressure Winds Precip Visibility


Weather for websites

WeatherForYou.com, LLC is not responsible for any damages or problems caused by this service. Current weather conditions are obtained from the closest station including government and personal stations which may have varying degrees of accuracy. Weather forecasts are derived from the NOAA NDFD. Like all things, this site belongs to Jesus Christ... He just trusts us to maintain it. If you have any questions or comments email webmaster@weatherforyou.com

Copyright © 2015, WeatherForYou.com LLC. All rights reserved.